User: anonymous   Login
Location: Rancho Del Sol Observatory
(38.7214°N, 120.6350°W)
Time: 15:41:00
(UTC-07:00)
Language:

Cosmos 2221 Rocket - Orbit

View from above orbital plane
View from above orbital plane
View from above satellite
View from above satellite

Ground track
Ground track

The orbit data is extracted from the following two-line orbital elements,

1 22237U 92080B   17116.71432176 +.00000120 +00000-0 +13278-4 0  9990
2 22237 082.5121 165.6112 0020150 018.3991 117.3339 14.78312579315742
Epoch (UTC): 26 April 2017 17:08:37
Eccentricity: 0.0020150
inclination: 82.5121°
perigee height: 620 km
apogee height: 649 km
right ascension of ascending node: 165.6112°
argument of perigee: 18.3991°
revolutions per day: 14.78312579
mean anomaly at epoch: 117.3339°
orbit number at epoch: 31574

The dashed part of the orbit path shows where the satellite is in the earth's shadow,  

DLR